Showing default

SENTINEL 1A, 39634

Orbit data source: Space-Track

SENTINEL 1A, 39634 is a payload satellite owned by ESA (ESA) in SSO that was launched on Thu, 03 Apr 2014 UTC via a SOYUZ-ST-A launch vehicle from the French Guiana (FRGUI). Payload-class satellites include a variety of spacecraft equipped with specific instruments for various scientific and technological missions. These include communications satellites like Starlink; space stations such as the ISS; scientific satellites like the Hubble; Earth observation satellites from companies like Planet Labs, Umbra, and HawkEye 360; GPS; miniature CubeSats for education and research; and military/defense satellites.

Loading next visibility...
Identifier
39634, 2014-016A
Orbit
SSO
Country
Flag of ESAESA
Related business
Manufacturer
Thales Alenia
Mission
Operational Civil Radar Imaging
Bus & Motor
PRISMA, AOCS
Mass
2,157 kg wet, 2,027 kg dry
Launch date (UTC)
2014-04-03 (12 years ago)
Launch vehicle
SOYUZ-ST-A
Launch site
French Guiana (FRGUI)
Object type
Payload
Rocket body
Debris
Shape & HBR
Box + 4 Pan, 10.5 m
Radar Cross Section
23.487 m², Large (>1 m²)

Expand to show TLE details & history
Last TLE update: 9 hours ago

TLE from 9 hours ago
0 SENTINEL 1A
1 39634U 14016A   25308.59047354  .00000227  00000-0  57929-4 0  9999
2 39634  98.1816 314.3918 0001311  89.9191 270.2159 14.59200330617267
Epoch: 2025-11-04T14:10Z
TLE epoch observation values (Epoch: 2025-11-04T14:10:16.913Z)
Latitude
-0.00004°
Longitude
57.74603°
Altitude
698.738 km
Speed
7.507 km/s
True Right ascension
20h 57m 34s
True Declination
0° 00' 00"
Sunlit
Object was in daylight at epoch
Visualization orbit readout
Latitude
Unknown
Longitude
Unknown
Altitude
Unknown
Speed
Unknown
Apparent Right ascension
Unknown
Apparent Declination
Unknown
Sunlit
N/A
Visualization observer readout
Local Sidereal Time
19:18:10
Azimuth
Unknown
Elevation
Unknown
Doppler factor
Unknown
Orbital elements
Apogee altitude
693.766 km
Perigee altitude
691.912 km
Semi-major axis
7,070.976 km
Eccentricity
0.00013
Inclination
98.1816°
RAAN
314.3918°
Arg. of periapsis
89.9191°
True anomaly
270.20088°
Mean anomaly
270.2159°
Eccentric anomaly
270.20839°
Mean motion
3.65026 °/min
Orbital period
98.62 mins
BSTAR
0.000057929
Loading maneuver chart data...
Computing Atmospheric mass density...
Loading historical data...
Loading historical data...
Loading historical data...
Loading historical data...
Loading historical data...
Loading historical data...
Loading historical data...

Documentation

Showing up to 5 results
|